Regional Weather Roundup
Issued by NWS Albany, NY

Current Version | Previous Version | Text Only | Print | Product List | Glossary On
Versions: 1 2 3 4 5 6 7 8 9 10 11 12 13 14 15 16 17 18 19 20 21 22 23 24 25
774
ASUS41 KALY 221910
RWRALY

NEW YORK STATE HOURLY WEATHER ROUNDUP
NATIONAL WEATHER SERVICE ALBANY NY
300 PM EDT FRI MAY 22 2015

NOTE: "FAIR" INDICATES FEW OR NO CLOUDS BELOW 12,000 FEET WITH NO
SIGNIFICANT WEATHER AND/OR NO OBSTRUCTIONS TO VISIBILITY.

NYZ032-033-038>043-046>054-057>066-NYZ062>081-222000-
EAST


CITY           SKY/WX    TMP DP  RH WIND       PRES   REMARKS
ALBANY         MOSUNNY   67  30  25 W20G25    29.93R
GLENS FALLS    MOSUNNY   64  23  21 NW18G24   29.90R
POUGHKEEPSIE   SUNNY     72  33  24 W21G28    29.90R
NEWBURGH       PTSUNNY   68  41  37 NW14G25   29.93R
MONTGOMERY     PTSUNNY   69  39  33 NW10      29.92R
WHITE PLAINS   PTSUNNY   72  38  29 W10G22    29.91R
ISLIP          PTSUNNY   67  44  43 SW14      29.90R
NEW YORK CITY  PTSUNNY   72  38  29 NW18G29   29.90S
CENTRAL PARK   PTSUNNY   71  37  28 VRB6      29.94R
$$

NYZ005>009-017-018-044>046-055-056-222000-
CENTRAL


CITY           SKY/WX    TMP DP  RH WIND       PRES   REMARKS
FULTON         SUNNY     58  33  39 W16       30.05R
SYRACUSE       MOSUNNY   60  31  33 W22G37    30.03R
ROME           PTSUNNY   58  30  34 W18G28    30.02R
ELMIRA         MOSUNNY   65  32  29 N17G25    30.00R
BINGHAMTON     PTSUNNY   60  35  39 NW9G25    30.00R
MONTICELLO     MOSUNNY   63  36  36 NW15G24   29.97R
$$

NYZ026>034-041>043-222000-
NORTH


CITY           SKY/WX    TMP DP  RH WIND       PRES   REMARKS
WATERTOWN      CLOUDY    52  35  52 SW17G23   30.03R
FORT DRUM      NOT AVBL
MASSENA        SUNNY     55  27  34 NW21G29   30.01R
SARANAC LAKE   CLOUDY    49  25  39 NW9G17    29.93R
PLATTSBURGH    PTSUNNY   57  25  29 NW12G20   29.94R
$$

NYZ001>004-010>016-019>021-222000-
WEST


CITY           SKY/WX    TMP DP  RH WIND       PRES   REMARKS
NIAGARA FALLS  PTSUNNY   59  32  36 W18G24    30.09R
BUFFALO        PTSUNNY   54  37  52 SW20      30.09R
DUNKIRK        LGT RAIN  56  36  47 W18G30    30.13R
JAMESTOWN      MOSUNNY   54  30  40 W12G21    30.13R
WELLSVILLE     MOSUNNY   59  28  30 NW18      30.07R
ROCHESTER      MOSUNNY   59  29  31 NW17G25   30.07R
PENN YAN       PTSUNNY   58  37  45 N10G18    30.04R
$$

             KEY
       WCI = WIND CHILL INDEX
       VSB = VISIBILITY
       HX  = HEAT INDEX
$$



USA.gov is the U.S. government's official web portal to all federal, state and local government web resources and services.